PROBA-1 1 26958U 01049B 26120.01037943 .00001357 00000+0 91715-4 0 9994 2 26958 97.9617 126.8644 0053600 286.5162 73.0180 15.07313933336361 CUTE-1 (CO-55) 1 27844U 03031E 26119.56554426 .00000333 00000+0 16331-3 0 9993 2 27844 98.6755 128.7341 0008924 333.6679 26.4045 14.24304800184755 CUBESAT XI-IV (CO-57) 1 27848U 03031J 26119.95139711 .00000276 00000+0 14042-3 0 9999 2 27848 98.6786 128.8667 0009185 351.7833 8.3194 14.23594310184512 APRIZESAT 4 1 35684U 09041D 26119.77248376 .00000981 00000+0 12334-3 0 9996 2 35684 98.1422 194.1287 0044569 117.9526 242.6210 14.83805506904184 APRIZESAT 3 1 35686U 09041F 26119.94596829 .00001900 00000+0 16882-3 0 9990 2 35686 98.1995 270.8816 0061103 225.5904 134.0305 14.96071251909168 PROBA-2 1 36037U 09059B 26119.47827820 .00000227 00000+0 63383-4 0 9996 2 36037 98.2449 303.5072 0014506 73.1704 287.1083 14.54841261874447 APRIZESAT 5 1 37792U 11044E 26119.76817444 .00000954 00000+0 12781-3 0 9997 2 37792 98.2440 51.4467 0052745 157.2647 203.0918 14.80976456791627 APRIZESAT 6 1 37793U 11044F 26119.70519781 .00000755 00000+0 11402-3 0 9993 2 37793 98.2391 29.2109 0041945 240.3283 183.0488 14.76849180789993 PROBA-V 1 39159U 13021A 26119.90362725 .00000076 00000+0 51604-4 0 9999 2 39159 98.3562 100.9018 0002958 277.4311 82.6532 14.23586486674246 APRIZESAT 7 1 39416U 13066A 26119.85085129 .00001579 00000+0 16177-3 0 9992 2 39416 97.7674 73.7802 0036323 14.1018 346.1206 14.91445812674024 APRIZESAT 8 1 39425U 13066K 26119.84625196 .00001272 00000+0 14338-3 0 9992 2 39425 97.8189 68.0032 0047550 85.1321 275.5323 14.87545754672481 BUGSAT-1 (TITA) 1 40014U 14033E 26119.96355260 .00004443 00000+0 23910-3 0 9997 2 40014 98.0412 209.7168 0027846 348.5043 11.5549 15.15094577648537 SAUDISAT 4 1 40016U 14033G 26119.89750737 .00000852 00000+0 11923-3 0 9990 2 40016 97.7515 267.7220 0043766 229.3153 130.4253 14.79471745638930 APRIZESAT 9 1 40018U 14033J 26119.94833899 .00000557 00000+0 89389-4 0 9993 2 40018 97.8985 254.3460 0066035 356.6244 3.4510 14.74159167636457 APRIZESAT 10 1 40019U 14033K 26119.89483013 .00000625 00000+0 10538-3 0 9992 2 40019 97.9575 247.9527 0080104 68.4459 292.5261 14.70838835635157 TECHDEMOSAT-1 (TDS-1) 1 40076U 14037H 26119.94313242 .00009331 00000+0 53928-3 0 9994 2 40076 98.3804 107.4100 0008171 76.6175 283.5964 15.12525915640938 TECHNOSAT 1 42829U 17042E 26119.90676051 .00003729 00000+0 26864-3 0 9991 2 42829 97.4235 279.4277 0016103 257.2396 102.7031 15.04662187479442 FLYING LAPTOP 1 42831U 17042G 26119.92005072 .00002962 00000+0 23687-3 0 9993 2 42831 97.4465 277.3849 0017914 289.5032 70.4258 15.00834221479211 HAWK-A 1 43765U 18099H 26119.63981752 .00007624 00000+0 31159-3 0 9992 2 43765 97.3960 172.5212 0037030 96.6304 263.9151 15.24008497405705 HAWK-B 1 43794U 18099AN 26119.86701446 .00007199 00000+0 31116-3 0 9999 2 43794 97.4009 172.2598 0034139 112.5060 247.9797 15.22238494405685 HAWK-C 1 43799U 18099AT 26119.65874610 .00008916 00000+0 32685-3 0 9995 2 43799 97.3935 173.2180 0042883 97.4345 263.1770 15.27337944406505 SALSAT 1 46495U 20068K 26119.53425572 .00008222 00000+0 29370-3 0 9993 2 46495 97.8855 119.6659 0011643 110.4415 249.8075 15.29067816307921 HAWK-2C 1 47502U 21006CT 26119.63142633 .00006393 00000+0 19613-3 0 9997 2 47502 97.2324 164.9206 0007370 29.6929 330.4732 15.34071615292052 HAWK-2A 1 47505U 21006CW 26119.63435345 .00006385 00000+0 19580-3 0 9999 2 47505 97.2368 165.5727 0007083 34.0553 326.1144 15.34083795292053 HAWK-2B 1 47508U 21006CZ 26119.63141554 .00007192 00000+0 22015-3 0 9992 2 47508 97.2241 163.9814 0007513 30.9438 329.2247 15.34094410292054 HAWK-3B 1 48931U 21059BE 26119.48949807 .00036901 00000+0 36620-3 0 9998 2 48931 97.6695 311.7391 0006124 142.3268 217.8421 15.65682947270224 HAWK-3C 1 48948U 21059BX 26119.48919219 .00035885 00000+0 35632-3 0 9992 2 48948 97.6826 317.3376 0006551 142.0488 218.1233 15.65670870270225 HAWK-3A 1 48957U 21059CG 26119.48905443 .00035549 00000+0 35296-3 0 9999 2 48957 97.6769 314.5824 0006167 142.4787 217.6904 15.65677074270229 HAWK-5C 1 52754U 22057Y 26119.89881622 .00020334 00000+0 36883-3 0 9994 2 52754 97.6523 276.5452 0003870 231.1758 128.9147 15.49632566218867 HAWK-5B 1 52756U 22057AA 26119.96325303 .00020720 00000+0 37568-3 0 9993 2 52756 97.6532 274.9567 0004108 226.7754 133.3154 15.49639898218873 HAWK-5A 1 52757U 22057AB 26119.96301411 .00020617 00000+0 37385-3 0 9990 2 52757 97.6530 275.7903 0004295 229.3235 130.7643 15.49636550218871 HAWK-6B 1 55324U 23011A 26119.51836108 .00005273 00000+0 23105-3 0 9997 2 55324 40.4994 275.8448 0002149 20.3427 339.7468 15.22489134180427 HAWK-6C 1 55326U 23011C 26119.78010594 .00005462 00000+0 23898-3 0 9990 2 55326 40.4981 271.1631 0002809 9.4138 350.6723 15.22495348180473 HAWK-6A 1 55327U 23011D 26119.45216630 .00004994 00000+0 21925-3 0 9992 2 55327 40.4991 274.6944 0002583 1.9581 358.1238 15.22489875180425 HAWK-7A 1 56191U 23054P 26119.94866347 .00006109 00000+0 23431-3 0 9993 2 56191 97.2766 8.5150 0002616 167.5726 192.5578 15.26846221169661 HAWK-7B 1 56193U 23054R 26119.94859604 .00006228 00000+0 23880-3 0 9993 2 56193 97.2793 6.7616 0001748 163.5432 196.5864 15.26846780169667 HAWK-7C 1 56200U 23054Y 26119.94848896 .00006153 00000+0 23596-3 0 9994 2 56200 97.2769 7.5454 0002266 157.6858 202.4480 15.26847014169662